Time,TemperatureF,DewpointF,PressureIn,WindDirection,WindDirectionDegrees,WindSpeedMPH,WindSpeedGustMPH,Humidity,HourlyPrecipIn,Conditions,Clouds,dailyrainin,SoftwareType,DateUTC
2013-10-17 00:01:00,64.9,61.9,30.03,NW,325,7.0,11.0,90,0.00,,---,0.00,VWS V14.01,2013-10-17 05:01:00,
2013-10-17 00:06:00,64.8,61.8,30.04,North,357,9.0,11.0,90,0.00,,---,0.00,VWS V14.01,2013-10-17 05:06:00,
2013-10-17 00:11:00,64.8,61.8,30.04,NNW,331,6.0,11.0,90,0.00,,---,0.00,VWS V14.01,2013-10-17 05:11:00,
2013-10-17 00:16:00,64.9,61.9,30.04,NNW,330,6.0,11.0,90,0.00,,---,0.00,VWS V14.01,2013-10-17 05:16:00,
2013-10-17 00:21:00,64.9,61.9,30.03,NW,314,4.0,11.0,90,0.00,,---,0.00,VWS V14.01,2013-10-17 05:21:00,
2013-10-17 00:26:00,64.8,61.8,30.03,NNW,345,3.0,11.0,90,0.00,,---,0.00,VWS V14.01,2013-10-17 05:26:00,
2013-10-17 00:31:00,64.8,61.8,30.03,NNW,332,5.0,11.0,90,0.00,,---,0.00,VWS V14.01,2013-10-17 05:31:00,
2013-10-17 00:36:00,64.7,61.7,30.03,NW,318,12.0,12.0,90,0.00,,---,0.00,VWS V14.01,2013-10-17 05:36:00,
2013-10-17 00:41:00,64.6,61.6,30.03,NNW,329,3.0,14.0,90,0.00,,---,0.00,VWS V14.01,2013-10-17 05:41:00,
2013-10-17 00:46:00,64.7,61.7,30.03,NNE,25,9.0,14.0,90,0.00,,---,0.00,VWS V14.01,2013-10-17 05:46:00,
2013-10-17 00:51:00,64.7,61.7,30.03,NW,319,5.0,14.0,90,0.00,,---,0.00,VWS V14.01,2013-10-17 05:51:00,
2013-10-17 00:56:00,64.6,61.6,30.03,NW,314,10.0,15.0,90,0.00,,---,0.00,VWS V14.01,2013-10-17 05:56:00,
2013-10-17 01:01:00,64.7,61.7,30.03,NNE,16,5.0,12.0,90,0.00,,---,0.00,VWS V14.01,2013-10-17 06:01:00,
2013-10-17 01:06:00,64.7,62.0,30.03,NNW,336,8.0,12.0,91,0.00,,---,0.00,VWS V14.01,2013-10-17 06:06:00,
2013-10-17 01:11:00,64.7,61.7,30.03,NW,325,4.0,12.0,90,0.00,,---,0.00,VWS V14.01,2013-10-17 06:11:00,
2013-10-17 01:16:00,64.6,61.6,30.03,NNW,339,3.0,12.0,90,0.00,,---,0.00,VWS V14.01,2013-10-17 06:16:00,
2013-10-17 01:21:00,64.6,61.6,30.04,NW,312,4.0,12.0,90,0.00,,---,0.00,VWS V14.01,2013-10-17 06:21:00,
2013-10-17 01:26:00,64.6,61.6,30.03,NNW,339,8.0,12.0,90,0.00,,---,0.00,VWS V14.01,2013-10-17 06:26:00,
2013-10-17 01:31:00,64.6,61.6,30.03,NW,321,5.0,12.0,90,0.00,,---,0.00,VWS V14.01,2013-10-17 06:31:00,
2013-10-17 01:36:00,64.6,61.6,30.03,NW,325,8.0,12.0,90,0.00,,---,0.00,VWS V14.01,2013-10-17 06:36:00,
2013-10-17 01:41:00,64.6,61.6,30.03,NNW,335,1.0,12.0,90,0.00,,---,0.00,VWS V14.01,2013-10-17 06:41:00,
2013-10-17 01:46:00,64.7,61.7,30.03,NW,326,8.0,12.0,90,0.00,,---,0.00,VWS V14.01,2013-10-17 06:46:00,
2013-10-17 01:51:00,64.7,61.7,30.02,North,352,13.0,13.0,90,0.00,,---,0.00,VWS V14.01,2013-10-17 06:51:00,
2013-10-17 01:56:00,64.8,62.1,30.02,North,8,5.0,13.0,91,0.00,,---,0.00,VWS V14.01,2013-10-17 06:56:00,
2013-10-17 02:01:00,64.8,62.1,30.02,NNW,330,4.0,9.0,91,0.00,,---,0.00,VWS V14.01,2013-10-17 07:01:00,
2013-10-17 02:06:00,64.9,62.2,30.02,NE,47,11.0,12.0,91,0.00,,---,0.00,VWS V14.01,2013-10-17 07:06:00,
2013-10-17 02:11:00,64.9,62.2,30.02,NNW,327,4.0,14.0,91,0.00,,---,0.00,VWS V14.01,2013-10-17 07:11:00,
2013-10-17 02:16:00,64.9,62.2,30.02,North,6,1.0,14.0,91,0.00,,---,0.00,VWS V14.01,2013-10-17 07:16:00,
2013-10-17 02:21:00,64.9,62.2,30.02,WNW,299,11.0,14.0,91,0.00,,---,0.00,VWS V14.01,2013-10-17 07:21:00,
2013-10-17 02:26:00,64.8,62.1,30.02,NNW,345,6.0,14.0,91,0.00,,---,0.00,VWS V14.01,2013-10-17 07:26:00,
2013-10-17 02:31:00,64.7,62.0,30.02,NW,315,4.0,14.0,91,0.00,,---,0.00,VWS V14.01,2013-10-17 07:31:00,
2013-10-17 02:36:00,64.7,62.0,30.02,North,349,4.0,14.0,91,0.00,,---,0.00,VWS V14.01,2013-10-17 07:36:00,
2013-10-17 02:41:00,64.7,61.7,30.02,NW,317,7.0,14.0,90,0.00,,---,0.00,VWS V14.01,2013-10-17 07:41:00,
2013-10-17 02:46:00,64.7,61.7,30.02,NNW,329,6.0,14.0,90,0.00,,---,0.00,VWS V14.01,2013-10-17 07:46:00,
2013-10-17 02:51:00,64.7,62.0,30.02,NNE,21,8.0,14.0,91,0.00,,---,0.00,VWS V14.01,2013-10-17 07:51:00,
2013-10-17 02:56:00,64.7,62.0,30.02,NNW,337,3.0,14.0,91,0.00,,---,0.00,VWS V14.01,2013-10-17 07:56:00,
2013-10-17 03:01:00,64.6,61.9,30.02,North,349,4.0,13.0,91,0.00,,---,0.00,VWS V14.01,2013-10-17 08:01:00,
2013-10-17 03:06:00,64.5,61.8,30.02,NW,305,6.0,13.0,91,0.00,,---,0.00,VWS V14.01,2013-10-17 08:06:00,
2013-10-17 03:08:00,64.5,61.8,30.02,NW,325,4.0,13.0,91,0.00,,---,0.00,VWS V14.01,2013-10-17 08:08:00,
2013-10-17 03:13:00,64.5,61.8,30.02,NNE,12,8.0,13.0,91,0.00,,---,0.00,VWS V14.01,2013-10-17 08:13:00,
2013-10-17 03:18:00,64.5,61.8,30.02,North,354,5.0,13.0,91,0.00,,---,0.00,VWS V14.01,2013-10-17 08:18:00,
2013-10-17 03:23:00,64.5,61.8,30.02,NNE,20,3.0,13.0,91,0.00,,---,0.00,VWS V14.01,2013-10-17 08:23:00,
2013-10-17 03:28:00,64.5,61.8,30.02,NE,49,8.0,13.0,91,0.00,,---,0.00,VWS V14.01,2013-10-17 08:28:00,
2013-10-17 03:33:00,64.5,61.8,30.02,NNE,12,10.0,13.0,91,0.00,,---,0.00,VWS V14.01,2013-10-17 08:33:00,
2013-10-17 03:38:00,64.5,61.8,30.01,North,9,5.0,13.0,91,0.00,,---,0.00,VWS V14.01,2013-10-17 08:38:00,
2013-10-17 03:43:00,64.5,61.8,30.01,NNW,328,7.0,15.0,91,0.00,,---,0.00,VWS V14.01,2013-10-17 08:43:00,
2013-10-17 03:48:00,64.6,61.9,30.02,NNW,340,8.0,15.0,91,0.00,,---,0.00,VWS V14.01,2013-10-17 08:48:00,
2013-10-17 03:53:00,64.7,62.0,30.01,North,9,9.0,15.0,91,0.00,,---,0.00,VWS V14.01,2013-10-17 08:53:00,
2013-10-17 03:58:00,64.7,61.7,30.01,NNW,338,8.0,9.0,90,0.00,,---,0.00,VWS V14.01,2013-10-17 08:58:00,
2013-10-17 04:03:00,64.7,61.7,30.01,NW,321,4.0,11.0,90,0.00,,---,0.00,VWS V14.01,2013-10-17 09:03:00,
2013-10-17 04:08:00,64.7,61.7,30.01,NW,326,5.0,11.0,90,0.00,,---,0.00,VWS V14.01,2013-10-17 09:08:00,
2013-10-17 04:13:00,64.7,61.7,30.01,NNW,333,6.0,11.0,90,0.00,,---,0.00,VWS V14.01,2013-10-17 09:13:00,
2013-10-17 04:18:00,64.7,61.7,30.01,NW,323,6.0,11.0,90,0.00,,---,0.00,VWS V14.01,2013-10-17 09:18:00,
2013-10-17 04:23:00,64.7,61.7,30.01,North,352,6.0,11.0,90,0.00,,---,0.00,VWS V14.01,2013-10-17 09:23:00,
2013-10-17 04:28:00,64.7,61.7,30.01,NNW,340,5.0,12.0,90,0.00,,---,0.00,VWS V14.01,2013-10-17 09:28:00,
2013-10-17 04:33:00,64.7,61.7,30.01,NNW,330,5.0,13.0,90,0.00,,---,0.00,VWS V14.01,2013-10-17 09:33:00,
2013-10-17 04:38:00,64.6,61.6,30.01,NNE,29,8.0,13.0,90,0.00,,---,0.00,VWS V14.01,2013-10-17 09:38:00,
2013-10-17 04:43:00,64.5,61.5,30.01,NNE,13,6.0,13.0,90,0.00,,---,0.00,VWS V14.01,2013-10-17 09:43:00,
2013-10-17 04:48:00,64.4,61.4,30.01,NNW,329,6.0,13.0,90,0.00,,---,0.00,VWS V14.01,2013-10-17 09:48:00,
2013-10-17 04:53:00,64.3,61.3,30.01,NNW,335,3.0,13.0,90,0.00,,---,0.00,VWS V14.01,2013-10-17 09:53:00,
2013-10-17 04:58:00,64.4,61.4,30.01,ENE,64,5.0,11.0,90,0.00,,---,0.00,VWS V14.01,2013-10-17 09:58:00,
2013-10-17 05:03:00,64.3,61.3,30.01,NNW,327,8.0,13.0,90,0.00,,---,0.00,VWS V14.01,2013-10-17 10:03:00,
2013-10-17 05:08:00,64.2,61.2,30.01,NNW,335,5.0,16.0,90,0.00,,---,0.00,VWS V14.01,2013-10-17 10:08:00,
2013-10-17 05:13:00,64.2,61.2,30.01,NW,316,5.0,16.0,90,0.00,,---,0.00,VWS V14.01,2013-10-17 10:13:00,
2013-10-17 05:18:00,64.1,61.1,30.01,North,5,7.0,16.0,90,0.00,,---,0.00,VWS V14.01,2013-10-17 10:18:00,
2013-10-17 05:23:00,63.9,60.9,30.01,NE,55,8.0,16.0,90,0.00,,---,0.00,VWS V14.01,2013-10-17 10:23:00,
2013-10-17 05:28:00,63.8,60.8,30.01,NW,325,7.0,17.0,90,0.00,,---,0.00,VWS V14.01,2013-10-17 10:28:00,
2013-10-17 05:39:00,63.7,60.7,30.02,NNW,330,10.0,17.0,90,0.00,,---,0.00,VWS V14.01,2013-10-17 10:39:00,
2013-10-17 05:44:00,63.7,60.7,30.02,WNW,293,6.0,17.0,90,0.00,,---,0.00,VWS V14.01,2013-10-17 10:44:00,
2013-10-17 05:49:00,63.7,60.4,30.02,NE,37,13.0,17.0,89,0.00,,---,0.00,VWS V14.01,2013-10-17 10:49:00,
2013-10-17 05:54:00,63.8,59.9,30.02,NW,316,3.0,17.0,87,0.00,,---,0.00,VWS V14.01,2013-10-17 10:54:00,
2013-10-17 05:59:00,64.0,59.4,30.02,NNE,29,12.0,16.0,85,0.00,,---,0.00,VWS V14.01,2013-10-17 10:59:00,
2013-10-17 06:04:00,64.1,58.8,30.02,NNW,330,9.0,16.0,83,0.00,,---,0.00,VWS V14.01,2013-10-17 11:04:00,
2013-10-17 06:09:00,64.2,58.3,30.02,North,1,3.0,17.0,81,0.00,,---,0.00,VWS V14.01,2013-10-17 11:09:00,
2013-10-17 06:14:00,64.2,58.3,30.02,NE,36,6.0,17.0,81,0.00,,---,0.00,VWS V14.01,2013-10-17 11:14:00,
2013-10-17 06:19:00,64.3,58.3,30.02,NNW,330,6.0,17.0,81,0.00,,---,0.00,VWS V14.01,2013-10-17 11:19:00,
2013-10-17 06:24:00,64.3,58.3,30.03,North,354,5.0,17.0,81,0.00,,---,0.00,VWS V14.01,2013-10-17 11:24:00,
2013-10-17 06:29:00,64.2,58.3,30.03,NNW,345,6.0,17.0,81,0.00,,---,0.00,VWS V14.01,2013-10-17 11:29:00,
2013-10-17 06:34:00,64.0,58.1,30.03,NNW,343,5.0,17.0,81,0.00,,---,0.00,VWS V14.01,2013-10-17 11:34:00,
2013-10-17 06:39:00,63.8,58.2,30.03,NNW,348,1.0,17.0,82,0.00,,---,0.00,VWS V14.01,2013-10-17 11:39:00,
2013-10-17 06:44:00,63.7,58.1,30.03,NNW,334,11.0,17.0,82,0.00,,---,0.00,VWS V14.01,2013-10-17 11:44:00,
2013-10-17 06:49:00,63.6,58.0,30.03,NW,314,5.0,17.0,82,0.00,,---,0.00,VWS V14.01,2013-10-17 11:49:00,
2013-10-17 06:54:00,63.6,58.0,30.03,NNW,336,7.0,17.0,82,0.00,,---,0.00,VWS V14.01,2013-10-17 11:54:00,
2013-10-17 06:59:00,63.7,57.8,30.03,NNE,30,7.0,15.0,81,0.00,,---,0.00,VWS V14.01,2013-10-17 11:59:00,
2013-10-17 07:04:00,63.9,57.3,30.03,East,81,7.0,18.0,79,0.00,,---,0.00,VWS V14.01,2013-10-17 12:04:00,
2013-10-17 07:09:00,64.0,57.0,30.03,North,356,7.0,18.0,78,0.00,,---,0.00,VWS V14.01,2013-10-17 12:09:00,
2013-10-17 07:14:00,64.0,57.4,30.03,NE,36,16.0,18.0,79,0.00,,---,0.00,VWS V14.01,2013-10-17 12:14:00,
2013-10-17 07:18:00,63.9,56.9,30.03,NE,34,12.0,18.0,78,0.00,,---,0.00,VWS V14.01,2013-10-17 12:18:00,
2013-10-17 07:23:00,63.9,56.9,30.03,NNE,32,6.0,18.0,78,0.00,,---,0.00,VWS V14.01,2013-10-17 12:23:00,
2013-10-17 07:28:00,63.9,56.9,30.04,NNE,33,14.0,18.0,78,0.00,,---,0.00,VWS V14.01,2013-10-17 12:28:00,
2013-10-17 07:33:00,63.9,56.9,30.04,NNE,20,12.0,18.0,78,0.00,,---,0.00,VWS V14.01,2013-10-17 12:33:00,
2013-10-17 07:38:00,63.9,56.9,30.04,NNW,333,5.0,18.0,78,0.00,,---,0.00,VWS V14.01,2013-10-17 12:38:00,
2013-10-17 07:43:00,64.1,57.1,30.04,NNE,25,7.0,18.0,78,0.00,,---,0.00,VWS V14.01,2013-10-17 12:43:00,
2013-10-17 07:48:00,64.2,57.2,30.05,North,355,6.0,18.0,78,0.00,,---,0.00,VWS V14.01,2013-10-17 12:48:00,
2013-10-17 07:53:00,64.2,57.2,30.05,NNE,16,8.0,18.0,78,0.00,,---,0.00,VWS V14.01,2013-10-17 12:53:00,
2013-10-17 07:58:00,64.3,57.3,30.06,NNE,25,9.0,13.0,78,0.00,,---,0.00,VWS V14.01,2013-10-17 12:58:00,
2013-10-17 08:03:00,64.3,57.3,30.06,NNE,22,11.0,15.0,78,0.00,,---,0.00,VWS V14.01,2013-10-17 13:03:00,
2013-10-17 08:08:00,64.4,57.4,30.06,NW,318,5.0,15.0,78,0.00,,---,0.00,VWS V14.01,2013-10-17 13:08:00,
2013-10-17 08:13:00,64.5,57.8,30.07,NNE,21,12.0,15.0,79,0.00,,---,0.00,VWS V14.01,2013-10-17 13:13:00,
2013-10-17 08:18:00,64.3,57.0,30.07,North,353,6.0,15.0,77,0.00,,---,0.00,VWS V14.01,2013-10-17 13:18:00,
2013-10-17 08:23:00,64.3,57.3,30.07,NE,53,3.0,15.0,78,0.00,,---,0.00,VWS V14.01,2013-10-17 13:23:00,
2013-10-17 08:28:00,64.2,57.2,30.07,North,356,2.0,15.0,78,0.00,,---,0.00,VWS V14.01,2013-10-17 13:28:00,
2013-10-17 08:33:00,64.6,57.6,30.07,NNE,18,7.0,15.0,78,0.00,,---,0.00,VWS V14.01,2013-10-17 13:33:00,
2013-10-17 08:38:00,64.8,57.4,30.07,NE,49,9.0,15.0,77,0.00,,---,0.00,VWS V14.01,2013-10-17 13:38:00,
2013-10-17 08:43:00,64.7,57.3,30.07,NNE,29,8.0,15.0,77,0.00,,---,0.00,VWS V14.01,2013-10-17 13:43:00,
2013-10-17 08:48:00,64.7,57.7,30.07,NNE,17,3.0,15.0,78,0.00,,---,0.00,VWS V14.01,2013-10-17 13:48:00,
2013-10-17 08:53:00,65.0,58.0,30.08,NW,325,4.0,15.0,78,0.00,,---,0.00,VWS V14.01,2013-10-17 13:53:00,
2013-10-17 08:58:00,65.2,57.5,30.08,NE,47,7.0,12.0,76,0.00,,---,0.00,VWS V14.01,2013-10-17 13:58:00,
2013-10-17 09:03:00,65.4,57.3,30.08,NNE,32,10.0,12.0,75,0.00,,---,0.00,VWS V14.01,2013-10-17 14:03:00,
2013-10-17 09:08:00,65.2,57.1,30.08,NNE,17,12.0,13.0,75,0.00,,---,0.00,VWS V14.01,2013-10-17 14:08:00,
2013-10-17 09:13:00,65.4,58.0,30.08,North,349,6.0,13.0,77,0.00,,---,0.00,VWS V14.01,2013-10-17 14:13:00,
2013-10-17 09:18:00,65.7,58.3,30.08,NW,311,9.0,13.0,77,0.00,,---,0.00,VWS V14.01,2013-10-17 14:18:00,
2013-10-17 09:23:00,65.8,57.7,30.08,North,355,6.0,13.0,75,0.00,,---,0.00,VWS V14.01,2013-10-17 14:23:00,
2013-10-17 09:28:00,66.2,58.0,30.09,ESE,112,6.0,13.0,75,0.00,,---,0.00,VWS V14.01,2013-10-17 14:28:00,
2013-10-17 09:33:00,66.2,58.0,30.09,North,357,3.0,14.0,75,0.00,,---,0.00,VWS V14.01,2013-10-17 14:33:00,
2013-10-17 09:38:00,65.9,58.1,30.09,NNW,342,6.0,14.0,76,0.00,,---,0.00,VWS V14.01,2013-10-17 14:38:00,
2013-10-17 09:43:00,65.8,58.0,30.09,NNE,33,5.0,14.0,76,0.00,,---,0.00,VWS V14.01,2013-10-17 14:43:00,
2013-10-17 09:48:00,65.6,57.8,30.09,NNW,329,1.0,15.0,76,0.00,,---,0.00,VWS V14.01,2013-10-17 14:48:00,
2013-10-17 09:53:00,65.7,57.9,30.09,NNE,25,9.0,15.0,76,0.00,,---,0.00,VWS V14.01,2013-10-17 14:53:00,
2013-10-17 09:58:00,65.7,57.6,30.09,NNE,21,8.0,15.0,75,0.00,,---,0.00,VWS V14.01,2013-10-17 14:58:00,
2013-10-17 10:03:00,66.1,58.3,30.09,NE,39,10.0,16.0,76,0.00,,---,0.00,VWS V14.01,2013-10-17 15:03:00,
2013-10-17 10:08:00,66.4,57.9,30.09,NNW,332,3.0,16.0,74,0.00,,---,0.00,VWS V14.01,2013-10-17 15:08:00,
2013-10-17 10:13:00,66.1,58.0,30.10,NNE,25,14.0,16.0,75,0.00,,---,0.00,VWS V14.01,2013-10-17 15:13:00,
2013-10-17 10:18:00,66.0,57.9,30.10,North,11,6.0,16.0,75,0.00,,---,0.00,VWS V14.01,2013-10-17 15:18:00,
2013-10-17 10:23:00,66.2,58.4,30.10,North,349,8.0,16.0,76,0.00,,---,0.00,VWS V14.01,2013-10-17 15:23:00,
2013-10-17 10:28:00,66.2,58.0,30.10,NNE,17,3.0,16.0,75,0.00,,---,0.00,VWS V14.01,2013-10-17 15:28:00,
2013-10-17 10:33:00,66.4,58.2,30.10,NNW,341,6.0,16.0,75,0.00,,---,0.00,VWS V14.01,2013-10-17 15:33:00,
2013-10-17 10:38:00,66.7,58.9,30.10,NE,37,6.0,16.0,76,0.00,,---,0.00,VWS V14.01,2013-10-17 15:38:00,
2013-10-17 10:43:00,67.0,58.5,30.10,NNE,32,5.0,16.0,74,0.00,,---,0.00,VWS V14.01,2013-10-17 15:43:00,
2013-10-17 10:48:00,67.2,58.6,30.10,NNW,331,4.0,16.0,74,0.00,,---,0.00,VWS V14.01,2013-10-17 15:48:00,
2013-10-17 10:53:00,67.3,58.7,30.10,NE,55,6.0,16.0,74,0.00,,---,0.00,VWS V14.01,2013-10-17 15:53:00,
2013-10-17 10:58:00,67.4,58.5,30.10,NNW,340,4.0,9.0,73,0.00,,---,0.00,VWS V14.01,2013-10-17 15:58:00,
2013-10-17 11:03:00,67.4,58.5,30.10,ENE,57,8.0,14.0,73,0.00,,---,0.00,VWS V14.01,2013-10-17 16:03:00,
2013-10-17 11:08:00,67.6,58.7,30.10,North,353,5.0,14.0,73,0.00,,---,0.00,VWS V14.01,2013-10-17 16:08:00,
2013-10-17 11:13:00,67.9,58.9,30.10,NNW,332,3.0,14.0,73,0.00,,---,0.00,VWS V14.01,2013-10-17 16:13:00,
2013-10-17 11:18:00,67.9,58.5,30.10,NNW,345,4.0,14.0,72,0.00,,---,0.00,VWS V14.01,2013-10-17 16:18:00,
2013-10-17 11:23:00,68.0,59.0,30.10,NNE,13,8.0,14.0,73,0.00,,---,0.00,VWS V14.01,2013-10-17 16:23:00,
2013-10-17 11:28:00,68.1,58.3,30.10,NE,43,3.0,14.0,71,0.00,,---,0.00,VWS V14.01,2013-10-17 16:28:00,
2013-10-17 11:33:00,68.1,58.3,30.10,North,356,11.0,14.0,71,0.00,,---,0.00,VWS V14.01,2013-10-17 16:33:00,
2013-10-17 11:38:00,68.2,58.8,30.09,NNE,12,6.0,14.0,72,0.00,,---,0.00,VWS V14.01,2013-10-17 16:38:00,
2013-10-17 11:43:00,68.2,58.5,30.09,North,358,8.0,15.0,71,0.00,,---,0.00,VWS V14.01,2013-10-17 16:43:00,
2013-10-17 11:48:00,68.3,58.5,30.09,NE,42,13.0,15.0,71,0.00,,---,0.00,VWS V14.01,2013-10-17 16:48:00,
2013-10-17 11:53:00,68.3,58.5,30.09,NE,42,11.0,15.0,71,0.00,,---,0.00,VWS V14.01,2013-10-17 16:53:00,
2013-10-17 11:58:00,68.4,58.6,30.09,NE,39,7.0,7.0,71,0.00,,---,0.00,VWS V14.01,2013-10-17 16:58:00,
2013-10-17 12:03:00,68.4,58.2,30.08,NNW,337,3.0,12.0,70,0.00,,---,0.00,VWS V14.01,2013-10-17 17:03:00,
2013-10-17 12:08:00,68.6,58.8,30.08,NNE,13,5.0,12.0,71,0.00,,---,0.00,VWS V14.01,2013-10-17 17:08:00,
2013-10-17 12:13:00,68.9,59.1,30.08,North,4,6.0,12.0,71,0.00,,---,0.00,VWS V14.01,2013-10-17 17:13:00,
2013-10-17 12:18:00,69.0,58.8,30.08,NNW,336,6.0,12.0,70,0.00,,---,0.00,VWS V14.01,2013-10-17 17:18:00,
2013-10-17 12:23:00,69.0,59.2,30.08,NNE,29,2.0,12.0,71,0.00,,---,0.00,VWS V14.01,2013-10-17 17:23:00,
2013-10-17 12:28:00,69.1,59.3,30.07,NNW,336,5.0,12.0,71,0.00,,---,0.00,VWS V14.01,2013-10-17 17:28:00,
2013-10-17 12:33:00,69.3,59.1,30.07,NNE,17,6.0,12.0,70,0.00,,---,0.00,VWS V14.01,2013-10-17 17:33:00,
2013-10-17 12:38:00,69.7,59.9,30.07,NNE,19,5.0,12.0,71,0.00,,---,0.00,VWS V14.01,2013-10-17 17:38:00,
2013-10-17 12:43:00,69.9,59.3,30.06,North,5,5.0,12.0,69,0.00,,---,0.00,VWS V14.01,2013-10-17 17:43:00,
2013-10-17 12:48:00,70.1,59.5,30.06,NE,40,9.0,12.0,69,0.00,,---,0.00,VWS V14.01,2013-10-17 17:48:00,
2013-10-17 12:53:00,70.3,59.7,30.06,NNW,334,4.0,12.0,69,0.00,,---,0.00,VWS V14.01,2013-10-17 17:53:00,